Regional Weather Roundup
Issued by NWS Cleveland, OH

Home | Current Version | Previous Version | Text Only | Print | Product List | Glossary On
Versions: 1 2 3 4 5 6 7 8 9 10 11 12 13 14 15 16 17 18 19 20 21 22 23 24 25 26 27 28 29 30 31 32 33 34 35 36 37 38 39 40 41 42 43 44 45 46 47 48 49 50
000
ASUS41 KCLE 230910
RWRCLE
OHIO REGIONAL WEATHER ROUNDUP
NATIONAL WEATHER SERVICE WILMINGTON, OH
500 AM EDT TUE SEP 23 2014

NOTE: "FAIR" INDICATES FEW OR NO CLOUDS BELOW 12,000 FEET WITH NO
SIGNIFICANT WEATHER AND/OR OBSTRUCTIONS TO VISIBILITY.

OHZ001>008-015>018-024>027-034-035-043-044-231000-
   NORTHWEST OHIO

CITY           SKY/WX    TMP DP  RH WIND       PRES   REMARKS
DEFIANCE       CLEAR    N/A N/A N/A CALM      30.30R
FINDLAY        CLEAR     43  41  93 CALM      30.29R
TOLEDO EXPRESS CLEAR     43  40  89 CALM      30.30R
TOLEDO METCALF CLEAR     45  41  86 CALM      30.30S
LIMA           CLEAR     44  41  89 CALM      30.29S
$$

OHZ009>014-019>023-028>033-038-089-231000-
   NORTHEAST OHIO

CITY           SKY/WX    TMP DP  RH WIND       PRES   REMARKS
CLE-HOPKINS    CLEAR     44  40  85 CALM      30.32R
CLE-LAKEFRONT  CLEAR     47  42  83 SE9       30.29R
CUY CO. ARPT   NOT AVBL
LORAIN-ELYRIA  CLEAR     45  40  82 CALM      30.31R
ASHTABULA      CLEAR     42  39  89 CALM      30.31R
AKRON-CANTON   CLEAR     44  40  85 CALM      30.30R
WOOSTER        FOG       37  35  92 CALM      30.31R VSB 3/4
MANSFIELD      CLEAR     44  41  89 S5        30.30R
YOUNGSTOWN     CLEAR     42  40  92 CALM      30.30R
$$

OHZ042-051>053-060>062-070>072-077>081-231000-
  SOUTHWEST OHIO

CITY           SKY/WX    TMP DP  RH WIND       PRES   REMARKS
CINC-COVINGTON CLEAR     45  41  86 CALM      30.29R
CINC-LUNKEN    CLEAR     43  42  97 NE3       30.31R FOG
HAMILTON       CLEAR     40  39  97 CALM      30.31S
DAYTON         CLEAR     45  41  86 CALM      30.30S
WRIGHT-PAT AFB CLEAR     45  41  87 W1        30.30R
DAYTON GENERAL CLEAR     44  42  93 CALM      30.29R
WILMINGTON     CLEAR     41  38  89 CALM      30.29S
$$

OHZ036-037-039>041-045>050-054>059-063>069-073>076-082>088-231000-
  CENTRAL AND SOUTHEAST OHIO

CITY           SKY/WX    TMP DP  RH WIND       PRES   REMARKS
COLUMBUS       CLEAR     45  40  82 CALM      30.30R
OSU AIRPORT    CLEAR     43  40  89 CALM      30.30R
BOLTON FIELD   CLEAR     38  38  99 CALM      30.30S
RICKENBACK AFB CLEAR     41  39  93 CALM      30.30R
NEWARK         FOG       37  35  92 CALM      30.31R VSB 1/2
MARION         CLEAR     44  39  82 CALM      30.30R
LANCASTER      CLEAR     38  36  92 CALM      30.30S
ZANESVILLE     CLEAR     39  36  89 CALM      30.30S
NEW PHILLY     FOG       42  41  96 CALM      30.32R VSB 1/4
$$


USA.gov is the U.S. government's official web portal to all federal, state and local government web resources and services.